Theta_e
323 316 311 315 304 299 295 299 300 300 298 298 300 299 294 293 292 295 295 297 299 300 305 310 319 322 324 326 327 329 332 333 336 338 340 341 343 343 343 343 344 345 345 344 346 345 345 346 344
319 316 314 310 300 295 296 294 295 298 300 300 297 298 295 289 298 294 293 298 299 300 304 308 316 320 321 322 323 324 325 328 331 332 334 335 337 338 340 341 341 341 342 343 343 345 344 344 345
315 314 308 305 300 295 299 296 295 298 298 300 295 293 292 289 293 292 294 298 298 298 303 306 313 317 319 319 320 320 321 322 324 326 328 330 331 333 336 335 336 337 339 341 341 341 341 341 342
306 310 309 299 298 297 298 296 297 296 297 299 295 289 290 293 293 294 297 297 297 297 300 305 310 313 315 316 317 317 317 318 319 320 322 323 325 326 328 329 331 333 334 336 336 336 335 334 336
305 307 302 297 297 298 297 299 299 297 295 295 296 290 288 293 295 295 295 296 295 296 298 301 307 309 311 312 313 314 314 315 315 316 317 318 320 320 321 323 324 326 328 329 330 330 330 331 334
301 305 296 294 297 298 296 299 297 296 296 295 294 292 289 295 294 294 296 295 296 295 297 298 303 306 308 308 310 310 311 312 312 313 313 314 315 315 315 316 319 320 322 322 324 324 325 327 330
299 300 295 297 298 296 296 298 294 294 293 292 295 290 289 292 294 295 295 295 296 296 296 296 297 300 303 305 306 308 309 309 309 310 310 310 309 310 310 311 314 315 317 318 319 319 320 323 323
303 302 298 299 300 293 294 291 291 293 290 293 293 289 287 291 294 295 295 295 294 295 295 295 295 296 296 297 304 305 305 305 305 306 306 306 305 307 307 308 311 312 313 315 315 316 315 316 316
305 297 295 295 296 293 293 291 290 290 290 289 289 290 291 293 294 294 293 293 294 294 294 294 295 295 296 298 299 300 302 301 301 300 303 301 299 300 301 305 306 307 308 310 311 311 311 310 310
299 297 294 294 293 291 293 293 289 289 287 287 286 289 291 292 293 291 291 290 291 291 293 293 294 294 295 297 295 295 296 295 294 293 295 297 296 298 298 299 301 302 303 304 305 307 306 304 301
294 293 294 292 295 294 292 293 293 292 290 290 287 287 288 290 290 290 290 290 290 291 292 293 293 294 294 294 293 293 293 292 291 290 291 293 294 293 293 293 293 293 296 294 296 296 297 297 297
290 291 292 292 293 295 291 292 289 288 286 291 291 288 288 288 289 289 289 290 290 291 291 292 292 292 290 291 291 291 291 289 289 289 290 290 290 290 290 290 290 290 291 291 292 293 294 294 295
288 288 290 290 290 289 292 290 288 285 286 290 289 289 288 288 288 289 290 289 290 289 290 290 290 290 289 288 288 288 288 288 287 287 288 289 288 288 288 288 289 289 290 290 290 291 292 292 293
289 289 288 289 288 288 288 287 289 286 285 286 287 286 285 286 286 287 289 289 288 289 288 288 288 288 288 286 286 286 287 287 287 287 287 288 288 287 287 287 287 287 288 289 289 289 290 290 291
289 285 285 284 286 285 285 284 284 285 285 285 285 284 285 286 287 286 287 287 287 288 288 286 287 287 286 286 286 286 287 287 286 286 287 287 288 286 286 286 286 286 287 287 288 289 289 288 290
284 284 279 282 284 284 283 279 284 285 284 283 283 283 285 285 285 285 286 285 286 286 286 287 288 286 285 285 285 285 286 285 285 286 286 287 287 287 285 285 285 286 286 286 286 287 287 286 287
281 276 279 279 282 281 281 279 285 285 284 283 283 283 284 283 284 284 285 285 285 285 285 285 286 285 285 285 285 284 284 284 284 285 285 285 286 287 285 285 285 285 284 284 285 285 285 285 286
276 276 278 277 278 280 278 279 282 285 283 282 281 281 282 282 283 284 285 284 284 283 284 285 285 285 285 285 284 284 284 284 284 284 285 285 285 285 285 284 284 285 283 283 284 283 284 284 285
278 277 276 276 278 276 276 277 279 282 282 280 282 282 282 282 284 284 284 283 283 282 283 283 284 284 284 284 283 282 281 282 282 284 285 285 285 285 284 284 284 284 283 282 283 283 283 284 285
278 275 274 275 278 275 275 275 277 279 281 282 282 282 282 282 281 283 282 282 281 281 281 282 283 283 284 284 283 282 281 282 283 283 284 285 285 285 285 283 283 283 282 282 282 282 281 282 283
274 274 273 273 275 275 273 274 278 280 280 282 282 282 282 282 280 280 280 280 279 280 280 281 282 282 283 284 283 282 282 281 281 282 282 284 285 284 284 283 283 282 282 281 281 281 281 280 281
275 274 275 276 272 271 273 269 273 276 277 280 282 281 282 282 281 281 281 279 279 279 279 281 282 282 283 283 282 281 279 278 279 281 281 282 283 283 284 283 282 282 282 280 281 281 281 281 279
275 275 275 274 272 270 271 269 273 276 275 276 278 280 280 282 281 281 281 282 281 280 279 280 281 281 282 282 282 280 279 279 280 280 280 281 282 282 283 282 281 280 280 280 280 280 279 280 279
277 275 275 273 272 265 270 270 271 274 278 278 279 278 280 280 282 281 282 282 281 280 280 279 280 280 281 281 281 281 280 279 279 279 279 279 280 280 281 282 280 280 280 280 280 280 279 279 279
275 274 269 267 264 266 271 269 272 277 278 279 278 278 279 279 281 280 280 281 281 280 279 280 280 280 280 281 280 280 280 280 280 279 279 278 278 278 278 279 279 279 279 280 279 279 279 278 278
274 273 269 262 267 270 272 269 274 279 278 279 280 279 281 280 282 281 281 281 281 281 280 281 280 280 280 280 280 280 280 280 280 279 279 279 278 278 279 279 279 279 279 279 279 279 279 278 279
273 270 274 265 264 264 270 273 277 278 278 278 278 279 278 279 280 281 281 281 281 281 282 281 281 280 280 280 280 280 280 280 279 279 279 279 279 281 279 279 279 279 279 279 278 278 278 278 278
274 275 269 268 260 260 270 268 271 275 277 278 278 278 279 280 280 281 281 281 282 282 283 282 282 281 280 280 280 280 280 280 280 279 279 279 279 279 279 279 279 279 279 278 278 278 278 277 278
270 270 270 271 270 265 264 269 274 276 277 277 278 279 279 280 280 281 281 281 281 281 281 282 281 281 280 280 280 280 280 280 280 280 279 279 280 279 279 279 279 278 278 278 277 277 277 277 277
271 272 272 268 266 266 267 268 278 277 278 278 278 279 279 280 280 280 281 281 281 280 280 281 281 281 281 281 280 280 280 280 279 279 279 280 280 280 279 279 279 278 278 278 277 277 277 276 276
Wind_Speed
12 11 3 4 4 4 2 3 4 6 5 2 8 7 13 10 5 2 2 6 6 8 9 10 14 15 16 17 17 18 18 17 17 18 18 18 18 16 15 14 15 14 12 11 12 10 11 10 0
6 7 3 1 3 1 2 1 5 7 2 6 8 2 7 5 5 5 4 6 8 8 8 9 13 15 16 17 17 17 16 17 17 16 17 17 17 16 16 16 15 14 12 12 10 12 13 12 9
5 3 3 2 2 1 3 3 7 4 7 4 5 8 5 3 3 4 1 6 8 7 7 8 13 15 16 17 17 17 16 16 15 15 16 16 16 17 17 17 16 15 15 15 14 13 14 13 12
4 4 4 3 2 3 4 6 8 5 4 8 5 9 5 2 2 3 4 7 8 6 5 9 13 15 16 16 16 17 16 16 16 15 14 14 15 15 16 17 17 15 15 14 14 13 12 11 11
3 1 1 2 1 3 5 8 6 5 5 5 3 5 5 3 7 7 8 8 7 6 5 4 12 12 15 15 15 16 16 16 16 15 13 14 14 16 15 16 16 15 15 16 15 14 14 13 11
3 3 2 3 2 5 3 7 7 5 3 2 6 6 3 5 7 4 6 7 6 6 6 6 10 12 13 15 15 15 16 16 16 16 14 13 15 14 16 16 15 15 14 15 14 15 15 13 11
3 3 4 4 2 1 5 4 4 6 4 3 2 5 5 6 6 4 6 7 7 6 6 5 6 8 11 13 13 15 17 17 17 17 16 16 16 15 15 16 15 17 14 15 15 15 16 14 13
3 3 3 4 2 2 2 4 1 7 3 2 4 6 7 8 9 6 6 7 8 7 7 6 6 6 5 5 15 15 16 18 18 17 17 17 16 16 17 16 17 18 17 17 16 17 17 16 16
3 3 3 3 4 4 4 5 4 3 7 4 5 4 5 11 10 6 5 5 5 7 6 5 7 5 6 6 9 12 16 18 18 16 18 10 7 7 11 17 19 19 19 19 18 18 18 16 15
3 3 3 2 3 2 4 3 5 4 3 3 3 5 5 5 5 9 7 6 5 5 5 5 5 6 5 7 6 6 8 7 9 10 10 7 9 9 12 14 19 18 20 19 19 19 17 13 6
2 3 4 2 3 4 3 4 5 7 3 6 7 10 7 4 4 6 8 7 6 4 4 5 6 6 4 5 4 4 4 5 6 10 9 8 7 6 6 6 6 7 13 7 10 9 7 8 6
5 5 4 3 5 2 2 4 3 3 2 2 6 11 6 6 6 5 5 6 6 7 7 6 7 5 6 5 4 5 5 5 6 7 9 6 5 7 7 6 7 7 6 8 7 6 8 9 9
4 4 5 5 5 4 1 3 3 4 6 8 10 8 8 6 7 6 6 4 6 7 5 5 6 4 5 6 4 5 5 5 6 7 8 7 6 6 6 6 6 7 7 7 7 7 7 8 9
3 6 6 5 4 3 2 2 2 3 6 7 8 8 6 8 6 5 4 3 6 6 5 4 5 5 6 5 6 4 4 5 6 6 7 9 6 6 6 6 7 7 7 7 6 7 6 6 6
7 5 3 4 2 2 2 2 4 5 7 7 5 5 5 5 6 5 4 4 6 5 4 5 6 6 6 6 6 5 5 6 6 6 8 9 8 8 7 6 7 7 6 8 6 7 6 7 7
2 5 3 2 5 2 1 6 2 7 9 8 8 7 7 7 7 7 7 7 6 5 5 5 6 6 7 6 5 4 5 5 5 6 6 9 9 8 7 7 7 7 6 7 6 7 7 6 6
1 3 4 2 2 1 2 6 5 9 8 8 9 9 8 7 6 6 7 7 6 6 5 5 6 5 6 6 5 5 6 5 4 5 6 8 9 9 7 7 7 7 6 7 7 6 5 7 6
6 4 1 4 1 1 1 10 6 9 9 10 8 9 9 9 10 9 9 8 7 6 5 5 4 4 3 4 4 4 4 4 4 4 5 7 6 8 6 6 8 7 7 8 8 6 6 6 5
0 4 5 2 0 0 4 8 13 8 7 8 8 8 9 10 9 10 9 9 8 7 6 6 5 3 2 2 3 3 3 3 4 4 6 7 7 7 8 6 7 7 8 8 10 6 6 10 9
3 2 2 2 1 2 4 12 9 4 6 9 10 9 9 7 8 9 9 7 8 7 6 6 6 4 3 3 2 3 3 2 3 3 5 6 6 7 8 7 7 8 7 9 11 10 4 4 8
4 4 3 2 2 2 4 7 4 3 2 5 5 6 5 10 12 10 9 8 8 7 6 6 6 5 4 5 3 3 4 3 2 3 3 4 6 6 6 7 6 7 7 7 6 8 10 6 4
4 0 3 3 4 3 2 4 5 1 3 5 6 7 8 8 7 10 10 8 8 8 6 7 6 5 4 5 3 3 3 3 2 2 2 3 5 6 6 6 6 6 4 6 5 6 5 4 6
3 1 3 1 2 3 2 4 8 4 3 2 3 5 7 8 12 14 14 13 9 9 9 7 7 5 5 3 5 5 5 3 2 2 4 3 3 5 5 5 6 5 4 5 5 5 6 4 3
4 3 3 4 3 4 3 5 7 6 7 5 4 3 3 6 8 11 11 10 10 8 9 8 8 6 5 4 5 7 8 6 4 2 3 2 2 3 5 5 5 5 5 5 4 5 6 5 4
2 5 3 5 5 6 1 2 11 4 4 5 4 3 1 3 6 10 13 11 10 10 9 8 9 7 7 6 5 6 7 6 7 5 4 4 2 1 2 2 3 3 3 5 4 5 5 4 3
4 6 7 8 4 3 4 7 9 4 4 3 4 4 2 2 3 9 11 11 12 12 11 9 10 8 8 7 7 5 6 4 4 4 4 3 3 3 3 2 3 3 3 4 4 3 3 4 4
4 3 4 8 3 5 4 7 7 3 5 4 5 4 2 1 2 7 8 10 12 13 14 13 11 8 9 9 7 7 6 5 5 5 4 3 4 3 4 3 2 2 2 3 3 2 3 3 3
3 2 4 3 3 4 5 5 7 7 9 7 6 6 5 2 2 5 8 11 11 13 13 11 11 11 7 8 7 7 7 7 6 5 5 5 4 4 4 3 3 2 1 1 2 2 2 2 2
1 1 2 3 5 7 2 9 8 11 11 12 9 8 7 6 5 6 6 6 8 8 9 10 8 9 8 8 7 7 6 7 6 6 6 6 4 5 5 5 4 3 3 2 1 1 1 2 3
2 6 5 7 7 2 3 10 3 6 9 11 9 9 8 7 7 6 6 4 7 8 8 11 9 9 8 7 7 7 7 7 7 6 6 6 6 6 6 6 5 5 4 4 3 3 3 4 4
Wind_Direction
320 302 281 32 56 75 255 25 29 18 53 65 24 58 102 45 45 137 228 27 68 72 42 12 14 23 28 33 33 30 29 24 23 27 29 29 31 29 31 34 32 29 25 26 26 28 25 13 171
315 311 30 57 91 80 278 137 72 38 155 122 78 41 51 75 48 91 39 343 69 66 48 17 19 27 30 33 34 32 31 28 26 26 26 27 28 27 31 34 29 25 18 17 22 22 26 19 10
290 230 69 120 172 178 153 117 135 58 34 67 100 53 56 23 64 94 5 45 68 69 59 23 27 32 33 32 32 32 31 29 28 27 28 27 28 28 31 33 27 24 19 15 20 14 14 12 7
324 2 353 98 235 355 116 136 126 112 33 37 118 68 74 10 79 107 74 59 69 57 85 33 31 35 35 35 33 32 32 30 29 28 31 32 31 29 28 28 23 26 22 20 19 14 11 5 0
32 19 282 210 215 114 98 147 128 101 95 30 64 122 92 82 76 65 69 58 71 53 49 40 36 39 35 36 35 35 33 31 30 30 31 37 36 33 30 25 24 17 17 15 13 8 3 3 7
355 99 52 231 191 142 86 95 98 90 105 110 87 97 104 129 95 58 100 86 71 71 53 40 25 36 42 38 36 36 36 33 30 30 31 34 32 38 31 24 25 22 19 16 13 11 5 5 15
130 93 228 248 197 149 144 105 71 116 105 44 5 90 137 134 125 112 104 100 76 56 50 37 31 28 36 41 36 34 38 35 33 31 32 34 30 27 31 25 23 22 22 19 19 15 15 17 18
124 117 273 276 258 161 12 71 324 77 86 89 6 157 180 175 148 154 125 103 87 61 48 27 33 11 15 39 41 35 39 36 35 31 32 37 29 32 29 27 21 24 21 21 20 20 18 18 17
15 52 259 338 11 168 163 92 10 29 91 52 13 16 89 135 145 145 126 95 77 69 60 34 31 15 12 49 40 38 39 39 32 23 24 26 18 12 27 30 29 28 24 24 20 21 20 16 14
106 150 162 1 8 21 97 99 148 118 110 88 70 59 100 143 169 135 121 99 74 65 53 37 38 17 23 61 42 32 40 34 31 20 15 16 22 25 32 27 30 25 23 22 20 19 16 17 4
25 135 131 27 8 348 93 111 139 123 193 178 186 168 167 158 148 127 120 125 111 85 74 41 48 22 18 53 45 45 42 30 24 25 18 16 22 23 24 19 14 11 11 11 9 7 10 3 5
102 52 74 15 354 28 67 123 96 91 91 31 138 144 143 152 135 121 98 97 110 89 53 33 48 29 33 51 39 49 58 42 35 27 20 17 20 26 26 21 12 14 6 3 5 6 5 5 1
95 133 73 98 67 53 321 95 144 122 104 105 117 139 158 170 123 92 101 94 88 95 83 45 57 41 49 56 48 47 49 53 41 33 23 24 26 31 25 20 14 14 8 9 7 10 9 3 357
91 104 125 98 89 43 88 160 109 149 136 121 141 159 142 134 135 119 133 133 104 95 87 76 63 69 65 65 55 53 51 48 45 35 28 24 28 30 27 23 16 16 11 5 2 5 6 360 359
140 91 103 12 356 59 24 209 243 153 140 152 158 148 149 158 146 179 198 127 106 98 107 113 86 61 64 63 57 56 52 50 45 33 28 26 30 33 26 22 22 13 2 2 358 5 7 9 9
145 94 139 302 349 323 60 271 226 179 155 184 188 190 185 183 171 138 126 119 127 130 119 78 83 74 73 75 66 58 58 53 45 37 29 27 28 30 32 29 24 10 12 12 6 8 15 10 10
339 195 181 259 353 16 119 248 221 181 180 201 198 190 179 167 167 154 147 156 158 144 134 109 102 94 98 94 87 77 71 57 45 41 34 24 26 28 35 29 19 13 18 17 10 7 8 13 4
197 195 191 167 250 107 239 264 253 219 192 209 205 199 186 176 188 167 155 149 135 128 127 118 107 106 116 102 90 71 70 61 48 39 41 33 27 31 32 29 26 24 28 23 15 13 3 19 358
141 128 128 108 328 338 246 270 270 239 196 206 222 206 199 191 185 164 155 148 142 138 141 146 138 176 78 86 100 80 81 67 50 47 40 36 30 29 31 29 28 25 30 20 17 2 10 21 9
71 112 89 82 136 66 334 295 282 192 206 192 202 216 203 177 159 164 155 151 156 159 168 162 160 152 124 122 125 132 132 92 102 68 43 39 34 30 44 35 33 32 28 28 24 23 1 13 23
53 130 116 147 357 276 331 317 334 9 142 185 207 210 200 180 170 168 165 167 158 169 172 157 153 138 121 122 107 88 82 69 62 45 45 36 43 36 38 36 38 34 34 28 24 22 25 18 350
153 134 114 90 75 194 115 256 305 188 65 64 176 201 218 173 163 166 165 171 173 183 169 158 154 146 153 155 139 163 150 136 148 122 113 66 56 44 40 44 42 40 33 33 24 31 27 27 25
141 79 97 86 99 73 309 94 266 146 95 126 197 217 229 216 169 175 179 176 179 162 169 166 161 165 172 163 135 122 112 116 124 108 103 106 74 60 53 53 49 43 33 31 36 30 31 29 45
134 88 50 52 83 38 234 138 273 198 182 173 140 61 25 354 180 175 173 159 174 167 162 162 165 183 182 169 145 145 141 145 129 140 130 132 105 61 56 58 56 49 40 31 27 38 38 31 41
80 89 18 359 12 216 291 70 237 213 213 182 181 169 24 339 153 157 165 173 171 172 170 165 165 182 185 183 172 162 162 162 164 158 154 141 138 89 62 72 64 58 50 35 32 39 41 24 31
176 150 155 192 188 212 4 230 259 217 158 123 121 132 98 27 171 172 176 174 176 175 174 171 173 173 182 184 197 179 169 157 171 158 151 148 146 159 146 110 92 75 68 46 34 34 36 35 29
199 188 144 102 43 56 219 278 319 182 175 114 121 116 122 35 45 177 177 179 179 178 181 178 179 183 180 185 184 188 179 173 179 169 152 157 161 167 163 153 126 95 75 58 35 33 33 24 9
147 228 96 356 122 254 278 267 228 214 204 169 164 171 181 187 206 199 190 193 190 185 181 180 176 185 187 189 183 187 182 184 182 170 175 184 193 172 174 190 184 175 147 96 55 13 353 12 345
134 188 39 122 146 166 198 260 214 205 178 176 180 177 175 187 214 240 239 218 197 176 174 178 175 176 184 185 190 188 190 189 187 180 191 192 190 196 197 203 202 208 212 208 203 277 286 325 313
193 204 169 132 229 215 152 270 278 194 175 156 177 180 182 180 218 237 249 227 190 186 175 177 178 176 184 185 185 195 193 186 193 195 201 203 201 201 205 205 208 215 218 218 229 251 267 267 276